Dickinson, ND

11:25 PM MDT on April 29, 2017 (GMT -0600)
Dickinson Municipal

Weather History for KDIK - October, 2011

Change the Weather History Date:

Sunday, October 16, 2011

  Actual Average Record
Temperature  
Mean Temperature 41 °F 44 °F  
Max Temperature 52 °F 57 °F 84 °F (1991)
Min Temperature 29 °F 31 °F 12 °F (1948)
Degree Days  
Heating Degree Days 24 21  
Month to date heating degree days 184 288  
Since 1 July heating degree days 420 642  
Cooling Degree Days 0 0  
Month to date cooling degree days 16 0  
Year to date cooling degree days 358 418  
Moisture  
Dew Point 28 °F    
Average Humidity 68    
Maximum Humidity 100    
Minimum Humidity 35    
Precipitation  
Precipitation 0.00 in 0.05 in 1.34 in (1980)
Month to date precipitation 0.29 0.72  
Year to date precipitation 17.28 14.48  
Sea Level Pressure  
Sea Level Pressure 30.09 in    
Wind  
Wind Speed 10 mph (WNW)    
Max Wind Speed 21 mph    
Max Gust Speed 25 mph    
Visibility 10 miles    
Events      
T = Trace of Precipitation, MM = Missing Value Source: NWS Daily Summary

Daily Weather History Graph

Daily Weather History Graph

Search for Another Location

Airport or City:

Trip Planner

Search our weather history database for the weather conditions in past years. The results will help you decide how hot, cold, wet, or windy it might be!

Date:

Astronomy

Oct. 16, 2011 Rise Set
Actual Time 7:10 AM MDT 6:02 PM MDT
Civil Twilight 6:39 AM MDT 6:33 PM MDT
Nautical Twilight 6:04 AM MDT 7:08 PM MDT
Astronomical Twilight 5:29 AM MDT 7:43 PM MDT
Moon 8:34 PM MDT (10/16) 11:45 AM MDT (10/16)
Length of Visible Light 11h 53m
Length of Day
10h 52m
Waning Gibbous, 82% of the Moon is Illuminated
Oct 16
Waning Gibbous
Oct 19
Last Quarter
Oct 26
New
Nov 2
First Quarter
Nov 10
Full

Hourly Weather History & Observations

Time (MDT) Temp. Windchill Dew Point Humidity Pressure Visibility Wind Dir Wind Speed Gust Speed Precip Events Conditions
12:56 AM 34.0 °F 26.6 °F 33.1 °F 96% 30.04 in 10.0 mi West 9.2 mph - N/A   Clear
1:56 AM 34.0 °F 26.6 °F 33.1 °F 96% 30.06 in 10.0 mi WNW 9.2 mph - N/A   Clear
2:56 AM 34.0 °F 26.0 °F 33.1 °F 96% 30.07 in 10.0 mi WNW 10.4 mph - N/A   Clear
5:56 AM 30.9 °F 21.7 °F 28.0 °F 89% 30.12 in 10.0 mi West 11.5 mph - N/A   Clear
6:56 AM 28.9 °F 20.4 °F 27.0 °F 92% 30.14 in 10.0 mi West 9.2 mph - N/A   Clear
7:56 AM 30.9 °F 22.8 °F 28.0 °F 89% 30.15 in 10.0 mi West 9.2 mph - N/A   Clear
8:56 AM 35.1 °F 26.4 °F 30.0 °F 82% 30.16 in 10.0 mi West 12.7 mph - N/A   Clear
9:56 AM 39.9 °F 31.4 °F 32.0 °F 73% 30.15 in 10.0 mi West 16.1 mph - N/A   Clear
10:56 AM 44.1 °F 36.5 °F 30.9 °F 60% 30.13 in 10.0 mi WNW 17.3 mph - N/A   Clear
11:56 AM 48.0 °F - 28.9 °F 48% 30.12 in 10.0 mi WNW 15.0 mph 24.2 mph N/A   Clear
12:56 PM 50.0 °F - 26.1 °F 39% 30.10 in 10.0 mi NW 13.8 mph 21.9 mph N/A   Clear
1:56 PM 50.0 °F - 26.1 °F 39% 30.09 in 10.0 mi WNW 18.4 mph - N/A   Clear
2:56 PM 51.1 °F - 25.0 °F 36% 30.06 in 10.0 mi WNW 13.8 mph - N/A   Clear
3:56 PM 51.1 °F - 24.1 °F 35% 30.05 in 10.0 mi WNW 15.0 mph - N/A   Clear
5:56 PM 43.0 °F 40.3 °F 26.1 °F 51% 30.05 in 10.0 mi WNW 4.6 mph - N/A   Clear
6:56 PM 37.0 °F 32.4 °F 25.0 °F 62% 30.07 in 10.0 mi West 5.8 mph - N/A   Clear
7:56 PM 37.9 °F 34.4 °F 27.0 °F 65% 30.06 in 10.0 mi West 4.6 mph - N/A   Clear
8:56 PM 36.0 °F 33.3 °F 26.1 °F 67% 30.06 in 10.0 mi West 3.5 mph - N/A   Clear
9:56 PM 35.1 °F 30.1 °F 28.0 °F 76% 30.06 in 10.0 mi West 5.8 mph - N/A   Clear
10:56 PM 37.9 °F 34.4 °F 27.0 °F 65% 30.04 in 10.0 mi WNW 4.6 mph - N/A   Clear